Regional Weather Roundup
Issued by NWS Austin/San Antonio, TX

Home | Current Version | Previous Version | Text Only | Print | Product List | Glossary On
Versions: 1 2 3 4 5 6 7 8 9 10 11 12 13 14 15 16 17 18 19 20 21 22 23 24 25 26 27 28 29 30 31 32 33 34 35 36 37 38 39 40 41 42 43 44 45 46 47 48 49 50
000
ASUS44 KEWX 271111
RWREWX
SOUTH TEXAS REGIONAL WEATHER ROUNDUP
NATIONAL WEATHER SERVICE AUSTIN/SAN ANTONIO TX
500 AM CST MON JAN 27 2020

NOTE: "FAIR" INDICATED FEW OR NO CLOUDS BELOW 12,000 FEET WITH NO
SIGNIFICANT WEATHER AND/OR OBSTRUCTIONS TO VISIBILITY.

* - THESE STATIONS ARE NOT NWS OR FAA STATIONS...AND ARE NOT SUBJECT
    TO NWS AND FAA QUALITY CONTROL.

TXZ171-172-183>190-271200-
TEXAS HILL COUNTRY AND EDWARDS PLATEAU

CITY           SKY/WX    TMP DP  RH WIND       PRES   REMARKS
JUNCTION       CLEAR     38  35  89 W3        30.00F
*LLANO         CLEAR     43  41  93 CALM      30.04S
BURNET         CLEAR     46  44  93 CALM      30.01F
*HORSESHOE BAY CLEAR     41  41 100 CALM      30.01
*LAGO VISTA    CLEAR     49  48  97 E3        30.00S
*KERRVILLE     CLEAR     40  38  91 CALM      30.00F
*FREDERICKSBRG CLEAR     40  38  93 CALM      30.01R
*ROCKSPRINGS   CLEAR     48  39  71 SE8       30.03F WCI  45
*BOERNE        CLEAR     41  41 100 CALM      30.02S
*CASTROVILLE   CLEAR     47  46  94 CALM      30.02S
HONDO          CLEAR     46  43  89 NE5       30.00S WCI  44
*UVALDE        CLEAR     49  45  84 NE9       30.00S WCI  46
DEL RIO        CLEAR     51  41  68 E6        29.95F
*LAUGHLIN AFB  CLEAR     46  40  81 E5        29.95F WCI  43
*SPOFFORD      NOT AVBL
*EAGLE PASS    CLEAR     48  41  76 E7        29.96F WCI  45
CARRIZO SPRGS  CLEAR     46  41  81 CALM      29.97S
*FAITH RANCH   CLEAR     54  43  66 S7        29.96S
$$

TXZ173-191>194-202-209-217>225-228-271200-
CENTRAL AND SOUTH CENTRAL TEXAS

CITY           SKY/WX    TMP DP  RH WIND       PRES   REMARKS
GEORGETOWN     CLEAR     41  39  93 CALM      30.01F
*TAYLOR        CLEAR     39  39  97 CALM      30.00S FOG
AUSTIN/BERGSTM CLEAR     42  40  92 CALM      30.00R
AUSTIN/MABRY   CLEAR     48  44  86 CALM      30.01R
*PFLUGERVILLE  CLEAR     46  46 100 N5        30.00S FOG     WCI  44
SAN MARCOS     CLEAR     43  42  97 NW5       30.00S WCI  40
NEW BRAUNFELS  CLEAR     48  46  93 N5        29.98F WCI  46
*RANDOLPH AFB  CLEAR     47  46  98 NW7       29.99S WCI  43
*SEGUIN        CLEAR     44  44  99 NW5       30.03F WCI  42
SAN ANTONIO    CLEAR     49  45  86 NW3       30.00S
STINSON FIELD  CLEAR     47  46  97 SW3       29.99R
*KELLY FIELD   CLEAR     45  42  90 CALM      29.97S
*PLEASANTON    CLEAR     45  43  91 CALM      30.00S
*KENEDY        CLEAR     45  44  95 CALM      30.00S
*LA GRANGE     CLEAR     46  46 100 CALM      29.97S
*GIDDINGS      CLEAR     46  45  95 CALM      29.99S FOG
*GONZALES      CLEAR     47  47  99 CALM      29.98F FOG
$$

TXZ163>164-176>182-195>201-210>213-226-227-235-271200-
SOUTHEAST TEXAS

CITY           SKY/WX    TMP DP  RH WIND       PRES   REMARKS
COLLEGE STN    FOG       51  50  96 NE5       30.00S VSB 1/4
*BRYAN         FOG       48  48 100 NE3       30.02S VSB 1/4
*CALDWELL      FOG       45 N/A N/A N9        30.00F VSB 1/2 WCI  40
*CROCKETT      NOT AVBL
*BRENHAM       FOG       49  49  99 CALM      30.00S VSB<1/4
HUNTSVILLE     CLOUDY    53  51  93 E3        30.01S FOG
CONROE         FOG       52  51  97 VRB5      30.01S VSB 1/2
HOUSTON BUSH   FOG       53  52  96 NE6       30.00S VSB 1/2
HOUSTON HOBBY  CLOUDY    57  54  89 E5        29.99S FOG
*HOUSTON SW AP CLOUDY    56  55  97 NE3       30.00S
PEARLAND       CLOUDY    57  54  89 NE5       30.00S FOG
HOUSTON HOOKS  FOG       53  51  93 NE5       30.00S VSB 1/2
ELLINGTON FLD  NOT AVBL
SUGAR LAND     CLOUDY    58  56  93 SE5       29.98F
*HOUSTON EXEC  FOG       54  54 100 CALM      30.00S VSB 1/4
*CLEVELAND MUN FOG       52  52 100 CALM      30.01F VSB<1/4
*WHARTON       CLOUDY    55  53  94 E3        30.00S FOG
*COLUMBUS      FAIR      43  39  84 CALM      30.00S
*EAGLE LAKE    CLOUDY    53  52  97 NE3       29.99  FOG
$$

TXZ214>216-236>238-271200-
THE UPPER TEXAS COAST

CITY           SKY/WX    TMP DP  RH WIND       PRES   REMARKS
*ORANGE        CLOUDY    56  52  88 N3        30.02F
PORT ARTHUR    CLOUDY    55  52  89 N8        30.00S
GALVESTON      CLOUDY    58  55  90 N5        30.00F
ANGLETON       CLOUDY    58  55  90 E3        29.99F
*BAY CITY      CLOUDY    58  58 100 NE3       29.99S FOG
PALACIOS       FOG       56  54  93 NE6       29.98S VSB 1/4
$$

TXZ229>234-239>247-271200-
TEXAS COASTAL BEND AND RIO GRANDE PLAINS

CITY           SKY/WX    TMP DP  RH WIND       PRES   REMARKS
VICTORIA       CLOUDY    52  49  89 NE6       29.98F
*BEEVILLE      NOT AVBL
ROCKPORT       FOG       54  51  90 CALM      29.97F VSB<1/4
*PORT ARANSAS  FOG       55  55  97 CALM      29.99F VSB 1/4
*PORT LAVACA   NOT AVBL
*INGLESIDE     FOG       55  55  98 CALM      29.97F VSB<1/4
CORPUS CHRISTI FOG       52  52 100 W6        29.98S VSB 1/4
CORPUS NAS     FOG       56  56 100 CALM      29.98R VSB 1/4
*ROBSTOWN      FOG       54  53  97 CALM      29.98F VSB 1/4
ALICE          PTCLDY    51  50  96 W3        29.97F FOG
KINGSVILLE NAS FOG       52  51  97 W3        29.98F VSB 1/4
COTULLA        CLEAR     53  49  86 E6        29.98S
LAREDO         CLEAR     56  54  93 SE7       29.96F
$$

TXZ248>255-271200-
DEEP SOUTH TEXAS

CITY           SKY/WX    TMP DP  RH WIND       PRES   REMARKS
BROWNSVILLE    CLOUDY    60  59  96 W3        29.99R FOG
PORT ISABEL    MOCLDY    55  54  96 NW3       29.98S
HARLINGEN        N/A     61  61 100 S3        29.98S FOG
*HEBBRONVILLE  FOG       51  51  99 CALM      29.99S VSB 1/4
MCALLEN        CLOUDY    60  57  89 S6        29.99S FOG
*WESLACO       CLOUDY    59  57  92 S5        29.98  FOG
FALFURRIAS     CLOUDY    53  51  92 CALM      29.98S VSB 1/4
EDINBURG       FOG       58  57  97 SE5       29.99S VSB<1/4
*ZAPATA        FAIR      53  50  92 E3        29.98S
$$

TXZ213>215-236>238-242>244-246-247-251-254-255-271200-
CMAN STATIONS

STATION/POSITION TIME  TEMP    WIND        PRES    WAVE
                       AIR SEA DIR/SP/G            HT/PER
                 (UTC) (F)     (DEG/KT/KT) (MB)    (FT/S)
SABINE PASS      1030                      1017.5
SEA RIM ST PARK  1100   54      10/  8/ 10 1015.6
NORTH JETTY/GLS  1024   56 60              1014.4
EAGLE POINT      1030                      1014.8
MORGANS POINT    1030                      1015.3
PORT O`CONNOR    1030                      1014.8
PORT ARANSAS     1100   59 61  320/  3/  3 1014.6
MALAQUITE BEACH  1030                      1014.8
BAFFIN BAY       1030                      1015.4
PORT ISABEL      1030                      1015.4
$$



USA.gov is the U.S. government's official web portal to all federal, state and local government web resources and services.